Tracking 31027 objects as of 19-Jul-2025
HD Live streaming from Space Station
objects crossing your sky now

COSMOS 839 DEB

Track COSMOS 839 DEB now!
10-day predictions


NORAD ID: 10463
Int'l Code: 1976-067AG
Perigee: 999.0 km
Apogee: 2,092.1 km
Inclination: 65.8 °
Period: 116.8 minutes
Semi major axis: 7916 km
RCS: 0.0397 m2 (small)
Launch date: July 8, 1976
Source: Commonwealth of Independent States (former USSR) (CIS)
Launch site: PLESETSK MISSILE AND SPACE COMPLEX (PKMTR)

Note: This is SATELLITE DEBRIS
Your satellite tracking list
FENGYUN 1C DEB
Track 1 satellite(s)




NASA's NSSDC Master Catalog

Two Line Element Set (TLE):
1 10463U 76067AG  25199.47130852 -.00000024  00000-0  11177-3 0  9993
2 10463  65.8209 213.7924 0690362 151.1288 290.7210 12.32527695205343
Source of the keplerian elements: AFSPC